This is the latest recevied weather packets stored in our database for station/object KD8UYA. If no packets are shown the sender has not sent any weather packets the latest 10 day(s).
| Time | Temp. | Humidity | Pressure | Rain* | Wind** | Luminosity | Snow |
|---|---|---|---|---|---|---|---|
| 1777547738 | 3.89° C | 96% | 1011.1 hPa | 0 mm | - | - | - |
| 1777546837 | 3.89° C | 97% | 1010.9 hPa | 0 mm | - | - | - |
| 1777545948 | 3.89° C | 97% | 1010.7 hPa | 0 mm | - | - | - |
| 1777545037 | 3.89° C | 97% | 1010.6 hPa | 0 mm | - | - | - |
| 1777544129 | 4.44° C | 97% | 1010.5 hPa | 0 mm | - | - | - |
| 1777543229 | 4.44° C | 97% | 1010.4 hPa | 0 mm | - | - | - |
| 1777542335 | 4.44° C | 97% | 1010.3 hPa | 0 mm | - | - | - |
| 1777541494 | 4.44° C | 98% | 1010.2 hPa | 0 mm | - | - | - |
| 1777540526 | 4.44° C | 98% | 1010 hPa | 0 mm | - | - | - |
| 1777539620 | 4.44° C | 98% | 1010 hPa | 0 mm | - | - | - |
| 1777538726 | 4.44° C | 98% | 1009.9 hPa | 0 mm | - | - | - |
| 1777536916 | 4.44° C | 98% | 1009.5 hPa | 0 mm | - | - | - |
| 1777536015 | 4.44° C | 98% | 1009.4 hPa | 0 mm | - | - | - |
| 1777535114 | 4.44° C | 98% | 1009.3 hPa | 0.25 mm | - | - | - |
| 1777534220 | 4.44° C | 98% | 1009.3 hPa | 0.25 mm | - | - | - |
| 1777533314 | 5° C | 98% | 1009.3 hPa | 0.25 mm | - | - | - |
| 1777532408 | 5° C | 98% | 1009.2 hPa | 0.51 mm | - | - | - |
| 1777530602 | 5.56° C | 99% | 1009.2 hPa | 0.51 mm | - | - | - |
| 1777529703 | 5.56° C | 98% | 1009.2 hPa | 0.76 mm | - | - | - |
| 1777528866 | 6.11° C | 98% | 1009.2 hPa | 1.02 mm | - | - | - |
| 1777527971 | 6.11° C | 98% | 1009.3 hPa | 1.02 mm | - | - | - |
| 1777527058 | 6.67° C | 99% | 1009.3 hPa | 0.76 mm | - | - | - |
| 1777526153 | 6.67° C | 98% | 1009.3 hPa | 0.51 mm | - | - | - |
| 1777525251 | 6.67° C | 99% | 1009.4 hPa | 0 mm | - | - | - |
| 1777524351 | 6.67° C | 99% | 1009.3 hPa | 0 mm | - | - | - |
* Rain latest hour (hover to see other rain measurements)
** Current wind speed in m/s (hover to see current wind gust speed)